Location: Most
(50.5330°N, 13.6500°E)
Time: 22:34:53
(UTC+01:00)

SO-50 - Visible Passes

Search period start: 22 January 2022 00:00
Search period end: 01 February 2022 00:00
Orbit: 595 x 689 km, 64.6° (Epoch: 22 January)

Date Brightness Start Highest point End Pass type
(mag) Time Alt. Az. Time Alt. Az. Time Alt. Az.
22 Jan ? 18:24:09 10° SE 18:25:19 13° SE 18:25:19 13° SE visible
22 Jan ? 20:01:57 10° SW 20:02:59 17° SW 20:02:59 17° SW visible
23 Jan ? 18:47:05 10° S 18:50:19 30° SE 18:50:19 30° SE visible
23 Jan ? 20:26:55 10° WSW 20:27:59 17° WSW 20:27:59 17° WSW visible
24 Jan ? 17:35:25 10° ESE 17:36:10 10° ESE 17:36:55 10° E visible
24 Jan ? 19:11:08 10° SSW 19:15:14 61° SSE 19:15:14 61° SSE visible
24 Jan ? 20:52:21 10° W 20:52:53 13° W 20:52:53 13° W visible
25 Jan ? 17:56:50 10° SSE 18:00:23 23° ESE 18:02:22 17° E visible
25 Jan ? 19:35:51 10° SW 19:40:02 62° WNW 19:40:02 62° WNW visible
26 Jan ? 18:20:28 10° SSW 18:24:50 46° ESE 18:27:05 26° ENE visible
26 Jan ? 20:01:06 10° WSW 20:04:43 35° WNW 20:04:43 35° WNW visible
27 Jan ? 18:44:54 10° SW 18:49:29 87° NW 18:51:42 32° NE visible
27 Jan ? 20:26:43 10° W 20:29:19 22° NW 20:29:19 22° NW visible
28 Jan ? 17:29:58 10° S 17:34:02 33° ESE 17:38:16 10° NE visible
28 Jan ? 19:09:54 10° WSW 19:14:22 47° NW 19:16:13 31° NNE visible
28 Jan ? 20:52:37 10° WNW 20:53:51 14° NW 20:53:51 14° NW visible
29 Jan ? 17:54:04 10° SSW 17:58:36 69° SE 18:03:02 11° NE visible
29 Jan ? 19:35:22 10° W 19:39:27 29° NNW 19:40:40 26° N visible
30 Jan ? 18:18:49 10° SW 18:23:22 63° NW 18:27:25 14° NE visible
30 Jan ? 20:01:10 10° WNW 20:04:43 21° NNW 20:05:03 21° NNW visible
31 Jan ? 18:44:05 10° WSW 18:48:22 36° NW 18:51:45 16° NNE visible
31 Jan ? 20:27:04 10° NW 20:29:23 16° NNW 20:29:23 16° NNW visible
